Location: *
(58.7167°N, 26.1833°E)
Time: 05:42:19
(UTC+00:00)

NOSS 2-1 (E) - Pass Details

Date: 25 August 2019
Orbit: 462 x 1742 km, 63.3° (Epoch: 13 September)

Event Time Altitude Azimuth Distance (km) Brightness Sun altitude
Exits shadow 22:38:34 39° 254° (WSW) 817 4.0 -20.5°
Maximum altitude 22:39:56 77° 333° (NNW) 587 3.4 -20.5°
Drops below altitude 10° 22:44:38 10° 60° (ENE) 2,146 6.8 -20.5°
Sets 22:47:20 0° 62° (ENE) 3,260 7.8 -20.4°
